Time,TemperatureF,DewpointF,PressureIn,WindDirection,WindDirectionDegrees,WindSpeedMPH,WindSpeedGustMPH,Humidity,HourlyPrecipIn,Conditions,Clouds,dailyrainin,SoftwareType,DateUTC
2013-04-15 00:00:00,65.6,62.3,29.96,SW,217,0.0,0.0,89,0.00,-RA,OVC,0.11,WeatherDisplay:10.37,2013-04-15 04:00:00,
2013-04-15 00:05:00,65.5,62.2,29.96,SW,217,0.0,0.0,89,0.00,-RA,OVC,0.00,WeatherDisplay:10.37,2013-04-15 04:05:00,
2013-04-15 00:10:00,65.4,62.1,29.95,SW,217,0.0,0.0,89,0.00,-RA,OVC,0.00,WeatherDisplay:10.37,2013-04-15 04:10:00,
2013-04-15 00:15:00,65.3,62.0,29.95,SW,217,0.0,0.0,89,0.00,-RA,OVC,0.00,WeatherDisplay:10.37,2013-04-15 04:15:00,
2013-04-15 00:20:00,65.2,61.9,29.95,SW,216,0.0,0.0,89,0.00,OVC,OVC,0.00,WeatherDisplay:10.37,2013-04-15 04:20:00,
2013-04-15 00:25:00,65.2,61.9,29.95,SW,217,0.0,0.0,89,0.00,OVC,OVC,0.00,WeatherDisplay:10.37,2013-04-15 04:25:00,
2013-04-15 00:30:00,65.1,61.8,29.95,SW,216,0.0,0.0,89,0.00,OVC,OVC,0.00,WeatherDisplay:10.37,2013-04-15 04:30:00,
2013-04-15 00:35:00,65.1,61.8,29.95,SW,216,0.0,0.0,89,0.00,OVC,OVC,0.00,WeatherDisplay:10.37,2013-04-15 04:35:00,
2013-04-15 00:40:00,65.0,61.7,29.95,SW,217,0.0,0.0,89,0.00,OVC,OVC,0.00,WeatherDisplay:10.37,2013-04-15 04:40:00,
2013-04-15 00:45:00,65.0,61.7,29.95,SW,216,0.0,0.0,89,0.00,OVC,OVC,0.00,WeatherDisplay:10.37,2013-04-15 04:45:00,
2013-04-15 00:50:00,64.9,61.6,29.95,SW,217,0.0,0.0,89,0.00,OVC,OVC,0.00,WeatherDisplay:10.37,2013-04-15 04:50:00,
2013-04-15 00:55:00,64.8,61.5,29.95,SW,216,0.0,0.0,89,0.00,OVC,OVC,0.00,WeatherDisplay:10.37,2013-04-15 04:55:00,
2013-04-15 01:00:00,64.8,61.5,29.95,SW,217,0.0,0.0,89,0.00,OVC,OVC,0.00,WeatherDisplay:10.37,2013-04-15 05:00:00,
2013-04-15 01:05:00,64.8,61.5,29.94,SW,217,0.0,0.0,89,0.00,OVC,OVC,0.00,WeatherDisplay:10.37,2013-04-15 05:05:00,
2013-04-15 01:10:00,64.8,61.5,29.94,SW,216,0.0,0.0,89,0.00,OVC,OVC,0.00,WeatherDisplay:10.37,2013-04-15 05:10:00,
2013-04-15 01:15:00,64.7,61.4,29.94,SW,216,0.0,0.0,89,0.00,OVC,OVC,0.00,WeatherDisplay:10.37,2013-04-15 05:15:00,
2013-04-15 01:20:00,64.7,61.4,29.93,SW,216,0.0,0.0,89,0.00,BKN,OVC,0.00,WeatherDisplay:10.37,2013-04-15 05:20:00,
2013-04-15 01:25:00,64.6,61.3,29.94,SW,217,0.0,0.0,89,0.00,BKN,OVC,0.00,WeatherDisplay:10.37,2013-04-15 05:25:00,
2013-04-15 01:30:00,64.5,61.2,29.94,SW,216,0.0,0.1,89,0.00,BKN,OVC,0.00,WeatherDisplay:10.37,2013-04-15 05:30:00,
2013-04-15 01:35:00,64.4,61.1,29.94,SW,217,0.0,0.0,89,0.01,RA,OVC,0.01,WeatherDisplay:10.37,2013-04-15 05:35:00,
2013-04-15 01:40:00,64.3,61.0,29.93,SW,217,0.0,0.0,89,0.01,RA,OVC,0.01,WeatherDisplay:10.37,2013-04-15 05:40:00,
2013-04-15 01:45:00,64.2,60.9,29.93,SW,217,0.0,0.0,89,0.01,BKN,OVC,0.01,WeatherDisplay:10.37,2013-04-15 05:45:00,
2013-04-15 01:50:00,64.2,61.2,29.93,SW,217,0.0,0.0,90,0.01,BKN,OVC,0.01,WeatherDisplay:10.37,2013-04-15 05:50:00,
2013-04-15 01:55:00,64.2,61.2,29.93,SW,217,0.0,0.0,90,0.01,BKN,OVC,0.01,WeatherDisplay:10.37,2013-04-15 05:55:00,
2013-04-15 02:00:00,64.1,61.1,29.93,SW,216,0.0,0.0,90,0.01,BKN,OVC,0.01,WeatherDisplay:10.37,2013-04-15 06:00:00,
2013-04-15 02:05:00,64.0,61.0,29.93,SW,217,0.0,0.0,90,0.01,FEW,OVC,0.01,WeatherDisplay:10.37,2013-04-15 06:05:00,
2013-04-15 02:10:00,64.0,61.0,29.93,SW,216,0.0,0.0,90,0.01,FEW,OVC,0.01,WeatherDisplay:10.37,2013-04-15 06:10:00,
2013-04-15 02:15:00,64.0,61.0,29.93,SW,217,0.0,0.0,90,0.01,FEW,OVC,0.01,WeatherDisplay:10.37,2013-04-15 06:15:00,
2013-04-15 02:20:00,64.1,61.1,29.93,SW,217,0.0,0.0,90,0.01,FEW,OVC,0.01,WeatherDisplay:10.37,2013-04-15 06:20:00,
2013-04-15 02:25:00,64.1,61.1,29.93,SW,216,0.0,0.0,90,0.01,FEW,OVC,0.01,WeatherDisplay:10.37,2013-04-15 06:25:00,
2013-04-15 02:30:00,64.1,61.1,29.93,SW,217,0.0,0.0,90,0.01,FEW,OVC,0.01,WeatherDisplay:10.37,2013-04-15 06:30:00,
2013-04-15 02:35:00,64.1,61.1,29.93,SW,216,0.0,0.0,90,0.00,FEW,OVC,0.01,WeatherDisplay:10.37,2013-04-15 06:35:00,
2013-04-15 02:40:00,64.2,61.2,29.93,SW,217,0.0,0.0,90,0.00,FEW,OVC,0.01,WeatherDisplay:10.37,2013-04-15 06:40:00,
2013-04-15 02:45:00,64.1,61.1,29.93,SW,217,0.0,0.0,90,0.00,FEW,OVC,0.01,WeatherDisplay:10.37,2013-04-15 06:45:00,
2013-04-15 02:50:00,64.2,61.2,29.92,SW,216,1.1,0.0,90,0.00,FEW,OVC,0.01,WeatherDisplay:10.37,2013-04-15 06:50:00,
2013-04-15 02:55:00,64.2,61.2,29.92,SW,216,0.0,0.0,90,0.00,FEW,OVC,0.01,WeatherDisplay:10.37,2013-04-15 06:55:00,
2013-04-15 03:00:00,64.3,61.3,29.92,SSW,212,1.1,1.1,90,0.00,FEW,OVC,0.01,WeatherDisplay:10.37,2013-04-15 07:00:00,
2013-04-15 03:05:00,64.4,61.4,29.92,SSW,211,1.1,1.1,90,0.00,SCT,OVC,0.01,WeatherDisplay:10.37,2013-04-15 07:05:00,
2013-04-15 03:41:00,65.0,61.4,29.92,South,170,1.1,1.3,88,0.00,SCT,OVC,0.01,WeatherDisplay:10.37,2013-04-15 07:41:00,
2013-04-15 03:46:00,65.1,61.5,29.92,SSE,168,1.1,1.1,88,0.00,SCT,OVC,0.01,WeatherDisplay:10.37,2013-04-15 07:46:00,
2013-04-15 03:48:00,65.1,61.5,29.92,South,174,1.1,1.1,88,0.00,SCT,OVC,0.01,WeatherDisplay:10.37,2013-04-15 07:48:00,
2013-04-15 03:51:00,65.0,61.4,29.92,South,173,1.1,1.1,88,0.00,SCT,OVC,0.01,WeatherDisplay:10.37,2013-04-15 07:51:00,
2013-04-15 03:56:00,65.0,61.4,29.92,South,173,1.1,1.1,88,0.00,SCT,OVC,0.01,WeatherDisplay:10.37,2013-04-15 07:56:00,
2013-04-15 04:01:00,65.0,61.0,29.92,South,173,1.1,1.1,87,0.00,SCT,OVC,0.01,WeatherDisplay:10.37,2013-04-15 08:01:00,
2013-04-15 04:06:00,65.1,61.1,29.92,South,173,1.1,1.1,87,0.00,SCT,OVC,0.01,WeatherDisplay:10.37,2013-04-15 08:06:00,
2013-04-15 04:11:00,65.1,61.1,29.92,South,170,2.0,2.0,87,0.00,SCT,OVC,0.01,WeatherDisplay:10.37,2013-04-15 08:11:00,
2013-04-15 04:16:00,65.1,61.1,29.92,South,170,1.1,1.1,87,0.00,SCT,OVC,0.01,WeatherDisplay:10.37,2013-04-15 08:16:00,
2013-04-15 04:21:00,65.1,61.1,29.92,South,170,0.0,0.0,87,0.00,SCT,OVC,0.01,WeatherDisplay:10.37,2013-04-15 08:21:00,
2013-04-15 04:26:00,65.0,61.0,29.92,South,170,0.0,0.2,87,0.00,SCT,OVC,0.01,WeatherDisplay:10.37,2013-04-15 08:26:00,
2013-04-15 04:31:00,65.0,61.0,29.92,South,170,0.0,0.0,87,0.00,SCT,OVC,0.01,WeatherDisplay:10.37,2013-04-15 08:31:00,
2013-04-15 04:35:00,64.9,60.9,29.92,South,170,0.0,0.0,87,0.00,SCT,OVC,0.01,WeatherDisplay:10.37,2013-04-15 08:35:00,
2013-04-15 04:40:00,64.9,60.9,29.92,South,170,1.1,1.1,87,0.00,SCT,OVC,0.01,WeatherDisplay:10.37,2013-04-15 08:40:00,
2013-04-15 04:45:00,65.0,61.0,29.92,South,170,1.0,2.0,87,0.00,SCT,OVC,0.01,WeatherDisplay:10.37,2013-04-15 08:45:00,
2013-04-15 04:50:00,65.0,61.0,29.91,SSE,163,2.3,2.3,87,0.00,SCT,OVC,0.01,WeatherDisplay:10.37,2013-04-15 08:50:00,
2013-04-15 04:55:00,65.0,61.4,29.90,SSE,156,2.3,2.3,88,0.00,SCT,OVC,0.01,WeatherDisplay:10.37,2013-04-15 08:55:00,
2013-04-15 05:00:00,65.0,61.4,29.90,SSE,159,2.3,2.3,88,0.00,SCT,OVC,0.01,WeatherDisplay:10.37,2013-04-15 09:00:00,
2013-04-15 05:05:00,65.0,61.0,29.90,SSE,162,3.4,3.4,87,0.00,SCT,OVC,0.01,WeatherDisplay:10.37,2013-04-15 09:05:00,
2013-04-15 05:10:00,65.3,61.3,29.90,SSE,162,3.4,3.4,87,0.00,SCT,OVC,0.01,WeatherDisplay:10.37,2013-04-15 09:10:00,
2013-04-15 05:15:00,65.4,61.1,29.91,South,180,2.3,2.3,86,0.00,SCT,OVC,0.01,WeatherDisplay:10.37,2013-04-15 09:15:00,
2013-04-15 05:20:00,65.6,61.3,29.90,South,176,2.3,2.3,86,0.00,CLR,OVC,0.01,WeatherDisplay:10.37,2013-04-15 09:20:00,
2013-04-15 05:25:00,65.7,61.1,29.90,SSE,166,2.3,2.3,85,0.00,CLR,OVC,0.01,WeatherDisplay:10.37,2013-04-15 09:25:00,
2013-04-15 05:30:00,65.7,61.1,29.89,SSE,165,3.4,3.4,85,0.00,CLR,OVC,0.01,WeatherDisplay:10.37,2013-04-15 09:30:00,
2013-04-15 05:35:00,65.7,61.1,29.90,SSE,166,2.3,2.3,85,0.00,CLR,OVC,0.01,WeatherDisplay:10.37,2013-04-15 09:35:00,
2013-04-15 05:40:00,65.6,61.0,29.91,SSE,167,0.0,0.0,85,0.00,CLR,OVC,0.01,WeatherDisplay:10.37,2013-04-15 09:40:00,
2013-04-15 05:45:00,65.5,61.2,29.92,SSE,167,0.0,0.0,86,0.00,RA,OVC,0.01,WeatherDisplay:10.37,2013-04-15 09:45:00,
2013-04-15 05:50:00,65.2,60.9,29.91,SSE,167,1.1,1.1,86,0.00,RA,OVC,0.01,WeatherDisplay:10.37,2013-04-15 09:50:00,
2013-04-15 05:55:00,65.1,60.8,29.92,SSE,167,0.0,1.0,86,0.00,CLR,OVC,0.01,WeatherDisplay:10.37,2013-04-15 09:55:00,
2013-04-15 06:00:00,64.7,60.7,29.93,NNW,334,3.4,3.4,87,0.00,CLR,OVC,0.01,WeatherDisplay:10.37,2013-04-15 10:00:00,
2013-04-15 06:05:00,64.5,60.5,29.93,North,354,0.0,3.0,87,0.00,CLR,OVC,0.01,WeatherDisplay:10.37,2013-04-15 10:05:00,
2013-04-15 06:10:00,64.5,60.5,29.93,North,2,1.1,0.0,87,0.00,CLR,OVC,0.01,WeatherDisplay:10.37,2013-04-15 10:10:00,
2013-04-15 06:15:00,64.5,60.5,29.93,North,3,1.1,1.1,87,0.00,CLR,OVC,0.01,WeatherDisplay:10.37,2013-04-15 10:15:00,
2013-04-15 06:20:00,64.5,60.9,29.94,NNW,342,2.3,2.3,88,0.00,CLR,OVC,0.01,WeatherDisplay:10.37,2013-04-15 10:20:00,
2013-04-15 06:25:00,64.6,61.0,29.94,North,350,1.1,0.0,88,0.00,CLR,OVC,0.01,WeatherDisplay:10.37,2013-04-15 10:25:00,
2013-04-15 06:30:00,64.6,61.0,29.94,North,357,1.1,1.1,88,0.00,CLR,OVC,0.01,WeatherDisplay:10.37,2013-04-15 10:30:00,
2013-04-15 06:35:00,64.8,61.1,29.94,North,354,0.0,1.0,88,0.00,CLR,OVC,0.01,WeatherDisplay:10.37,2013-04-15 10:35:00,
2013-04-15 06:40:00,64.9,61.3,29.94,North,7,2.3,2.3,88,0.00,CLR,OVC,0.01,WeatherDisplay:10.37,2013-04-15 10:40:00,
2013-04-15 06:45:00,64.8,61.2,29.94,NNE,16,1.0,2.0,88,0.00,CLR,OVC,0.01,WeatherDisplay:10.37,2013-04-15 10:45:00,
2013-04-15 06:50:00,64.7,61.1,29.94,NNE,27,1.1,0.0,88,0.00,CLR,OVC,0.01,WeatherDisplay:10.37,2013-04-15 10:50:00,
2013-04-15 06:55:00,64.8,61.2,29.94,NNE,28,0.0,0.0,88,0.00,CLR,OVC,0.01,WeatherDisplay:10.37,2013-04-15 10:55:00,
2013-04-15 07:00:00,64.6,61.0,29.94,NNE,21,1.1,1.1,88,0.00,CLR,OVC,0.01,WeatherDisplay:10.37,2013-04-15 11:00:00,
2013-04-15 07:05:00,64.4,60.8,29.94,NNE,21,1.1,1.1,88,0.00,CLR,OVC,0.01,WeatherDisplay:10.37,2013-04-15 11:05:00,
2013-04-15 07:10:00,64.3,60.7,29.94,NNE,23,1.1,1.1,88,0.00,CLR,OVC,0.01,WeatherDisplay:10.37,2013-04-15 11:10:00,
2013-04-15 07:15:00,64.2,60.6,29.95,NNE,23,0.0,0.0,88,0.00,CLR,OVC,0.01,WeatherDisplay:10.37,2013-04-15 11:15:00,
2013-04-15 07:20:00,64.1,60.8,29.95,NNE,24,0.0,0.0,89,0.00,CLR,OVC,0.01,WeatherDisplay:10.37,2013-04-15 11:20:00,
2013-04-15 07:25:00,64.1,60.8,29.95,NNE,24,0.0,1.0,89,0.00,CLR,OVC,0.01,WeatherDisplay:10.37,2013-04-15 11:25:00,
2013-04-15 07:30:00,64.1,60.8,29.96,NNE,23,0.0,0.0,89,0.00,CLR,OVC,0.01,WeatherDisplay:10.37,2013-04-15 11:30:00,
2013-04-15 07:35:00,64.1,60.8,29.97,NNE,24,0.0,0.0,89,0.00,CLR,OVC,0.01,WeatherDisplay:10.37,2013-04-15 11:35:00,
2013-04-15 07:40:00,64.1,60.8,29.98,NNW,344,0.0,0.0,89,0.00,CLR,OVC,0.01,WeatherDisplay:10.37,2013-04-15 11:40:00,
2013-04-15 07:45:00,64.2,60.9,29.99,NNW,341,1.1,0.0,89,0.00,CLR,OVC,0.01,WeatherDisplay:10.37,2013-04-15 11:45:00,
2013-04-15 07:50:00,64.2,60.9,29.99,NNW,343,1.1,1.1,89,0.00,CLR,OVC,0.01,WeatherDisplay:10.37,2013-04-15 11:50:00,
2013-04-15 07:55:00,64.3,61.0,29.98,NE,34,2.0,2.0,89,0.00,CLR,OVC,0.01,WeatherDisplay:10.37,2013-04-15 11:55:00,
2013-04-15 08:00:00,64.4,61.1,29.99,North,7,0.0,0.3,89,0.00,CLR,OVC,0.01,WeatherDisplay:10.37,2013-04-15 12:00:00,
2013-04-15 08:05:00,64.5,61.2,29.98,North,8,0.0,0.0,89,0.00,CLR,OVC,0.01,WeatherDisplay:10.37,2013-04-15 12:05:00,
2013-04-15 08:10:00,64.6,61.3,29.98,North,351,1.1,1.1,89,0.00,CLR,OVC,0.01,WeatherDisplay:10.37,2013-04-15 12:10:00,
2013-04-15 08:15:00,64.8,61.5,29.99,NW,316,1.1,0.0,89,0.00,CLR,OVC,0.01,WeatherDisplay:10.37,2013-04-15 12:15:00,
2013-04-15 08:20:00,64.9,61.6,29.99,NW,317,1.0,1.0,89,0.00,CLR,OVC,0.01,WeatherDisplay:10.37,2013-04-15 12:20:00,
2013-04-15 08:25:00,65.0,61.4,30.00,North,360,1.1,1.1,88,0.00,CLR,OVC,0.01,WeatherDisplay:10.37,2013-04-15 12:25:00,
2013-04-15 08:30:00,65.1,61.5,30.00,NNE,24,1.1,1.1,88,0.00,CLR,OVC,0.01,WeatherDisplay:10.37,2013-04-15 12:30:00,
2013-04-15 08:35:00,65.2,61.6,30.00,NNE,26,1.0,1.0,88,0.00,CLR,OVC,0.01,WeatherDisplay:10.37,2013-04-15 12:35:00,
2013-04-15 08:40:00,65.4,61.8,30.01,NNW,347,1.1,1.1,88,0.00,CLR,OVC,0.01,WeatherDisplay:10.37,2013-04-15 12:40:00,
2013-04-15 08:45:00,65.4,61.8,30.00,NNW,339,0.0,0.0,88,0.00,CLR,OVC,0.01,WeatherDisplay:10.37,2013-04-15 12:45:00,
2013-04-15 08:50:00,65.6,61.9,30.01,NNW,347,1.1,1.1,88,0.00,CLR,OVC,0.01,WeatherDisplay:10.37,2013-04-15 12:50:00,
2013-04-15 08:55:00,65.7,62.0,30.01,NNW,347,0.0,0.0,88,0.00,CLR,OVC,0.01,WeatherDisplay:10.37,2013-04-15 12:55:00,
2013-04-15 09:00:00,65.8,62.1,30.01,North,9,1.1,1.1,88,0.00,CLR,OVC,0.01,WeatherDisplay:10.37,2013-04-15 13:00:00,
2013-04-15 09:05:00,65.9,62.2,30.01,NNE,31,2.0,2.0,88,0.00,CLR,OVC,0.01,WeatherDisplay:10.37,2013-04-15 13:05:00,
2013-04-15 09:10:00,66.0,62.3,30.01,NNW,348,2.0,2.0,88,0.00,CLR,OVC,0.01,WeatherDisplay:10.37,2013-04-15 13:10:00,
2013-04-15 09:15:00,66.1,62.4,30.01,NE,56,2.3,2.3,88,0.00,CLR,OVC,0.01,WeatherDisplay:10.37,2013-04-15 13:15:00,
2013-04-15 09:20:00,66.3,62.6,30.01,North,2,1.0,1.0,88,0.00,CLR,OVC,0.01,WeatherDisplay:10.37,2013-04-15 13:20:00,
2013-04-15 09:25:00,66.4,62.7,30.01,NE,42,1.1,1.1,88,0.00,CLR,OVC,0.01,WeatherDisplay:10.37,2013-04-15 13:25:00,
2013-04-15 09:30:00,66.7,63.0,30.02,NNW,329,0.0,0.0,88,0.00,CLR,OVC,0.01,WeatherDisplay:10.37,2013-04-15 13:30:00,
2013-04-15 09:35:00,66.8,63.2,30.02,NNW,344,0.0,1.0,88,0.00,CLR,OVC,0.01,WeatherDisplay:10.37,2013-04-15 13:35:00,
2013-04-15 09:40:00,67.0,63.0,30.02,NNE,26,1.1,1.1,87,0.00,CLR,OVC,0.01,WeatherDisplay:10.37,2013-04-15 13:40:00,
2013-04-15 09:45:00,67.3,63.3,30.02,NE,47,2.3,2.3,87,0.00,CLR,OVC,0.01,WeatherDisplay:10.37,2013-04-15 13:45:00,
2013-04-15 09:50:00,67.6,63.3,30.02,NNW,343,1.1,1.1,86,0.00,CLR,OVC,0.01,WeatherDisplay:10.37,2013-04-15 13:50:00,
2013-04-15 09:55:00,67.9,63.5,30.02,North,356,1.0,2.0,86,0.00,CLR,OVC,0.01,WeatherDisplay:10.37,2013-04-15 13:55:00,
2013-04-15 10:00:00,68.2,63.9,30.02,North,355,1.1,0.0,86,0.00,CLR,OVC,0.01,WeatherDisplay:10.37,2013-04-15 14:00:00,
2013-04-15 10:05:00,68.5,63.8,30.02,East,85,3.4,3.4,85,0.00,CLR,OVC,0.01,WeatherDisplay:10.37,2013-04-15 14:05:00,
2013-04-15 10:10:00,68.8,63.8,30.02,North,11,3.4,3.4,84,0.00,CLR,OVC,0.01,WeatherDisplay:10.37,2013-04-15 14:10:00,
2013-04-15 10:15:00,69.2,64.5,30.02,NNE,14,0.0,3.0,85,0.00,CLR,OVC,0.01,WeatherDisplay:10.37,2013-04-15 14:15:00,
2013-04-15 10:20:00,69.9,64.8,30.02,NNE,21,3.4,3.4,84,0.00,CLR,OVC,0.01,WeatherDisplay:10.37,2013-04-15 14:20:00,
2013-04-15 10:25:00,70.4,64.3,30.02,North,9,3.4,3.4,81,0.00,CLR,OVC,0.01,WeatherDisplay:10.37,2013-04-15 14:25:00,
2013-04-15 10:30:00,70.9,64.4,30.02,NNE,31,3.4,3.4,80,0.00,CLR,OVC,0.01,WeatherDisplay:10.37,2013-04-15 14:30:00,
2013-04-15 10:35:00,71.3,64.4,30.02,NNE,26,3.4,3.4,79,0.00,CLR,OVC,0.01,WeatherDisplay:10.37,2013-04-15 14:35:00,
2013-04-15 10:40:00,71.7,65.2,30.02,North,9,0.0,0.1,80,0.00,CLR,OVC,0.01,WeatherDisplay:10.37,2013-04-15 14:40:00,
2013-04-15 10:44:00,72.3,64.7,30.02,NNW,334,3.4,3.4,77,0.00,CLR,OVC,0.01,WeatherDisplay:10.37,2013-04-15 14:44:00,
2013-04-15 10:45:00,72.3,64.7,30.02,NNW,334,3.4,3.4,77,0.00,CLR,OVC,0.01,WeatherDisplay:10.37,2013-04-15 14:45:00,
2013-04-15 10:50:00,72.3,64.7,30.02,NNW,334,3.4,3.4,77,0.00,CLR,OVC,0.01,WeatherDisplay:10.37,2013-04-15 14:50:00,
2013-04-15 10:55:00,73.3,65.3,30.03,East,80,5.0,5.0,76,0.00,CLR,OVC,0.01,WeatherDisplay:10.37,2013-04-15 14:55:00,
2013-04-15 11:00:00,73.8,65.8,30.03,NW,309,1.1,1.1,76,0.00,CLR,OVC,0.01,WeatherDisplay:10.37,2013-04-15 15:00:00,
2013-04-15 11:05:00,74.2,65.8,30.03,NNE,29,1.1,0.0,75,0.00,CLR,OVC,0.01,WeatherDisplay:10.37,2013-04-15 15:05:00,
2013-04-15 11:10:00,74.7,65.5,30.02,North,9,2.3,2.3,73,0.00,CLR,OVC,0.01,WeatherDisplay:10.37,2013-04-15 15:10:00,
2013-04-15 11:15:00,75.1,66.2,30.02,NE,37,2.0,2.0,74,0.00,CLR,OVC,0.01,WeatherDisplay:10.37,2013-04-15 15:15:00,
2013-04-15 11:20:00,75.5,65.4,30.02,North,360,2.3,2.3,71,0.00,CLR,OVC,0.01,WeatherDisplay:10.37,2013-04-15 15:20:00,
2013-04-15 11:25:00,75.8,66.1,30.02,NNE,25,2.3,2.3,72,0.00,CLR,OVC,0.01,WeatherDisplay:10.37,2013-04-15 15:25:00,
2013-04-15 11:30:00,76.3,66.2,30.02,NNE,21,3.4,3.4,71,0.00,CLR,OVC,0.01,WeatherDisplay:10.37,2013-04-15 15:30:00,
2013-04-15 11:35:00,76.6,66.5,30.02,NW,316,1.1,1.1,71,0.00,CLR,OVC,0.01,WeatherDisplay:10.37,2013-04-15 15:35:00,
2013-04-15 11:40:00,77.0,66.9,30.02,WSW,239,2.3,2.3,71,0.00,CLR,OVC,0.01,WeatherDisplay:10.37,2013-04-15 15:40:00,
2013-04-15 11:45:00,77.3,67.2,30.02,NW,315,2.3,2.3,71,0.00,CLR,OVC,0.01,WeatherDisplay:10.37,2013-04-15 15:45:00,
2013-04-15 11:50:00,77.8,66.8,30.02,NNE,33,3.4,3.4,69,0.00,CLR,OVC,0.01,WeatherDisplay:10.37,2013-04-15 15:50:00,
2013-04-15 11:55:00,78.2,67.2,30.02,NNW,329,4.6,4.6,69,0.00,CLR,OVC,0.01,WeatherDisplay:10.37,2013-04-15 15:55:00,
2013-04-15 12:00:00,78.4,67.0,30.02,NW,317,1.0,1.0,68,0.00,CLR,OVC,0.01,WeatherDisplay:10.37,2013-04-15 16:00:00,
2013-04-15 12:05:00,78.8,67.8,30.01,NNE,33,2.0,2.0,69,0.00,CLR,OVC,0.01,WeatherDisplay:10.37,2013-04-15 16:05:00,
2013-04-15 12:10:00,79.1,67.6,30.02,NNE,31,2.3,2.3,68,0.00,CLR,OVC,0.01,WeatherDisplay:10.37,2013-04-15 16:10:00,
2013-04-15 12:15:00,79.5,67.6,30.02,NE,40,5.8,5.8,67,0.00,CLR,OVC,0.01,WeatherDisplay:10.37,2013-04-15 16:15:00,
2013-04-15 12:20:00,79.8,67.9,30.02,NNW,331,2.3,2.3,67,0.00,CLR,OVC,0.01,WeatherDisplay:10.37,2013-04-15 16:20:00,
2013-04-15 12:25:00,79.9,68.0,30.01,NNE,33,1.1,1.1,67,0.00,CLR,OVC,0.01,WeatherDisplay:10.37,2013-04-15 16:25:00,
2013-04-15 12:30:00,80.2,68.2,30.01,South,171,1.1,1.1,67,0.00,CLR,OVC,0.01,WeatherDisplay:10.37,2013-04-15 16:30:00,
2013-04-15 12:35:00,80.7,66.9,30.01,SW,234,3.4,3.4,63,0.00,CLR,OVC,0.01,WeatherDisplay:10.37,2013-04-15 16:35:00,
2013-04-15 12:40:00,80.9,67.1,30.01,SW,225,1.1,1.1,63,0.00,CLR,OVC,0.01,WeatherDisplay:10.37,2013-04-15 16:40:00,
2013-04-15 12:45:00,81.1,67.3,30.01,South,189,1.1,1.1,63,0.00,CLR,OVC,0.01,WeatherDisplay:10.37,2013-04-15 16:45:00,
2013-04-15 12:50:00,81.3,67.5,30.01,SSW,201,1.0,0.0,63,0.00,CLR,OVC,0.01,WeatherDisplay:10.37,2013-04-15 16:50:00,
2013-04-15 12:55:00,81.6,67.8,30.01,SSW,196,1.1,1.1,63,0.00,CLR,OVC,0.01,WeatherDisplay:10.37,2013-04-15 16:55:00,
2013-04-15 13:00:00,82.0,67.2,30.01,NE,48,2.3,2.3,61,0.00,CLR,OVC,0.01,WeatherDisplay:10.37,2013-04-15 17:00:00,
2013-04-15 13:05:00,82.3,67.5,30.01,WSW,241,1.1,0.0,61,0.00,CLR,OVC,0.01,WeatherDisplay:10.37,2013-04-15 17:05:00,
2013-04-15 13:10:00,82.5,67.7,30.01,WSW,241,2.0,2.0,61,0.00,CLR,OVC,0.01,WeatherDisplay:10.37,2013-04-15 17:10:00,
2013-04-15 13:15:00,82.8,67.5,30.00,NNW,329,0.0,0.4,60,0.00,CLR,OVC,0.01,WeatherDisplay:10.37,2013-04-15 17:15:00,
2013-04-15 13:21:00,82.9,66.6,30.00,NNW,348,1.1,1.1,58,0.00,CLR,OVC,0.01,WeatherDisplay:10.37,2013-04-15 17:21:00,
2013-04-15 13:25:00,82.8,67.0,30.00,NNE,21,4.6,4.6,59,0.00,CLR,OVC,0.01,WeatherDisplay:10.37,2013-04-15 17:25:00,
2013-04-15 13:30:00,82.8,67.0,30.00,NNE,18,2.3,2.3,59,0.00,CLR,OVC,0.01,WeatherDisplay:10.37,2013-04-15 17:30:00,
2013-04-15 13:35:00,83.0,68.2,30.00,NE,35,0.0,0.0,61,0.00,CLR,OVC,0.01,WeatherDisplay:10.37,2013-04-15 17:35:00,
2013-04-15 13:40:00,83.4,67.6,30.00,NE,34,2.3,2.3,59,0.00,CLR,OVC,0.01,WeatherDisplay:10.37,2013-04-15 17:40:00,
2013-04-15 13:45:00,83.6,67.8,30.00,NE,40,2.3,0.0,59,0.00,CLR,OVC,0.01,WeatherDisplay:10.37,2013-04-15 17:45:00,
2013-04-15 13:50:00,83.9,68.5,30.00,South,176,1.1,1.1,60,0.00,CLR,OVC,0.01,WeatherDisplay:10.37,2013-04-15 17:50:00,
2013-04-15 13:55:00,84.2,67.8,30.00,South,176,2.3,2.3,58,0.00,CLR,OVC,0.01,WeatherDisplay:10.37,2013-04-15 17:55:00,
2013-04-15 14:00:00,84.3,67.9,30.00,NNE,21,3.4,3.4,58,0.00,CLR,OVC,0.01,WeatherDisplay:10.37,2013-04-15 18:00:00,
2013-04-15 14:05:00,84.6,68.2,30.00,ESE,122,1.1,0.0,58,0.00,CLR,OVC,0.01,WeatherDisplay:10.37,2013-04-15 18:05:00,
2013-04-15 14:10:00,84.8,68.4,30.00,WSW,242,2.3,0.0,58,0.00,CLR,OVC,0.01,WeatherDisplay:10.37,2013-04-15 18:10:00,
2013-04-15 14:15:00,84.9,68.5,30.00,NNE,18,1.1,0.0,58,0.00,CLR,OVC,0.01,WeatherDisplay:10.37,2013-04-15 18:15:00,
2013-04-15 14:20:00,85.2,68.2,29.99,WNW,286,2.3,2.3,57,0.00,CLR,OVC,0.01,WeatherDisplay:10.37,2013-04-15 18:20:00,
2013-04-15 14:25:00,85.7,67.7,29.99,South,187,2.3,2.3,55,0.00,CLR,OVC,0.01,WeatherDisplay:10.37,2013-04-15 18:25:00,
2013-04-15 14:29:00,85.7,67.7,29.99,SSW,207,1.1,0.0,55,0.00,CLR,OVC,0.01,WeatherDisplay:10.37,2013-04-15 18:29:00,
2013-04-15 14:34:00,85.7,67.7,29.99,WNW,303,2.3,2.3,55,0.00,CLR,OVC,0.01,WeatherDisplay:10.37,2013-04-15 18:34:00,
2013-04-15 14:39:00,85.7,68.2,29.99,WSW,240,1.1,0.0,56,0.00,CLR,OVC,0.01,WeatherDisplay:10.37,2013-04-15 18:39:00,
2013-04-15 14:44:00,85.4,67.4,29.99,SSW,207,1.1,0.0,55,0.00,CLR,OVC,0.01,WeatherDisplay:10.37,2013-04-15 18:44:00,
2013-04-15 14:49:00,85.1,67.1,29.99,SW,220,1.1,1.1,55,0.00,CLR,OVC,0.01,WeatherDisplay:10.37,2013-04-15 18:49:00,
2013-04-15 14:54:00,85.0,67.5,29.99,SW,222,0.0,0.0,56,0.00,CLR,OVC,0.01,WeatherDisplay:10.37,2013-04-15 18:54:00,
2013-04-15 14:59:00,84.9,66.9,29.99,NNW,347,2.3,2.3,55,0.00,CLR,OVC,0.01,WeatherDisplay:10.37,2013-04-15 18:59:00,
2013-04-15 15:04:00,84.8,67.9,29.99,NNW,346,0.0,0.0,57,0.00,CLR,OVC,0.01,WeatherDisplay:10.37,2013-04-15 19:04:00,
2013-04-15 15:09:00,84.5,67.6,29.99,North,1,0.0,0.0,57,0.00,CLR,OVC,0.01,WeatherDisplay:10.37,2013-04-15 19:09:00,
2013-04-15 15:14:00,84.7,68.8,29.98,WNW,302,0.0,0.0,59,0.00,CLR,OVC,0.01,WeatherDisplay:10.37,2013-04-15 19:14:00,
2013-04-15 15:19:00,84.5,67.6,29.98,North,355,0.0,0.0,57,0.00,CLR,OVC,0.01,WeatherDisplay:10.37,2013-04-15 19:19:00,
2013-04-15 15:24:00,84.4,67.5,29.98,North,355,1.1,0.0,57,0.00,CLR,OVC,0.01,WeatherDisplay:10.37,2013-04-15 19:24:00,
2013-04-15 15:29:00,84.3,67.4,29.98,NNW,348,1.1,1.1,57,0.00,CLR,OVC,0.01,WeatherDisplay:10.37,2013-04-15 19:29:00,
2013-04-15 15:34:00,84.3,67.4,29.98,NNW,329,0.0,0.0,57,0.00,CLR,OVC,0.01,WeatherDisplay:10.37,2013-04-15 19:34:00,
2013-04-15 15:39:00,84.1,67.7,29.97,NNW,331,0.0,0.0,58,0.00,CLR,OVC,0.01,WeatherDisplay:10.37,2013-04-15 19:39:00,
2013-04-15 15:44:00,83.9,67.5,29.97,NNW,331,1.1,1.1,58,0.00,CLR,OVC,0.01,WeatherDisplay:10.37,2013-04-15 19:44:00,
2013-04-15 15:49:00,84.2,67.8,29.97,NNW,340,1.1,1.1,58,0.00,CLR,OVC,0.01,WeatherDisplay:10.37,2013-04-15 19:49:00,
2013-04-15 15:54:00,85.0,69.1,29.97,NNW,335,1.1,0.0,59,0.00,CLR,OVC,0.01,WeatherDisplay:10.37,2013-04-15 19:54:00,
2013-04-15 15:57:00,85.4,68.4,29.97,North,9,2.0,2.0,57,0.00,CLR,OVC,0.01,WeatherDisplay:10.37,2013-04-15 19:57:00,
2013-04-15 15:59:00,86.0,68.5,29.97,NNW,336,2.0,2.0,56,0.00,CLR,OVC,0.01,WeatherDisplay:10.37,2013-04-15 19:59:00,
2013-04-15 16:01:00,86.0,68.5,29.97,NNW,336,2.0,2.0,56,0.00,CLR,OVC,0.01,WeatherDisplay:10.37,2013-04-15 20:01:00,
2013-04-15 16:02:00,86.0,68.5,29.97,NNW,336,2.0,2.0,56,0.00,CLR,OVC,0.01,WeatherDisplay:10.37,2013-04-15 20:02:00,
2013-04-15 16:07:00,86.0,68.5,29.97,NNW,336,2.0,2.0,56,0.00,CLR,OVC,0.01,WeatherDisplay:10.37,2013-04-15 20:07:00,
2013-04-15 16:12:00,86.5,67.9,29.96,NNE,15,3.4,3.4,54,0.00,CLR,OVC,0.01,WeatherDisplay:10.37,2013-04-15 20:12:00,
2013-04-15 16:17:00,87.1,68.4,29.96,SSE,167,1.1,1.1,54,0.00,CLR,OVC,0.01,WeatherDisplay:10.37,2013-04-15 20:17:00,
2013-04-15 16:22:00,87.6,67.2,29.96,South,189,2.3,2.3,51,0.00,CLR,OVC,0.01,WeatherDisplay:10.37,2013-04-15 20:22:00,
2013-04-15 16:27:00,87.6,67.2,29.96,WSW,254,1.1,1.1,51,0.00,CLR,OVC,0.01,WeatherDisplay:10.37,2013-04-15 20:27:00,
2013-04-15 16:32:00,87.9,67.5,29.96,WSW,253,1.1,1.1,51,0.00,CLR,OVC,0.01,WeatherDisplay:10.37,2013-04-15 20:32:00,
2013-04-15 16:37:00,88.0,67.0,29.96,NNE,14,1.1,0.0,50,0.00,CLR,OVC,0.01,WeatherDisplay:10.37,2013-04-15 20:37:00,
2013-04-15 16:42:00,88.2,67.8,29.96,NW,312,1.1,1.1,51,0.00,CLR,OVC,0.01,WeatherDisplay:10.37,2013-04-15 20:42:00,
2013-04-15 16:47:00,88.4,66.2,29.96,SW,234,1.1,1.1,48,0.00,CLR,OVC,0.01,WeatherDisplay:10.37,2013-04-15 20:47:00,
2013-04-15 16:52:00,88.3,66.1,29.96,South,186,2.3,2.3,48,0.00,CLR,OVC,0.01,WeatherDisplay:10.37,2013-04-15 20:52:00,
2013-04-15 16:57:00,88.2,66.0,29.96,NE,38,3.0,3.0,48,0.00,CLR,OVC,0.01,WeatherDisplay:10.37,2013-04-15 20:57:00,
2013-04-15 17:02:00,88.2,66.6,29.96,SW,230,1.1,1.1,49,0.00,CLR,OVC,0.01,WeatherDisplay:10.37,2013-04-15 21:02:00,
2013-04-15 17:07:00,88.4,66.2,29.96,North,2,1.1,0.0,48,0.00,CLR,OVC,0.01,WeatherDisplay:10.37,2013-04-15 21:07:00,
2013-04-15 17:12:00,88.0,65.8,29.96,ENE,72,2.3,2.3,48,0.00,CLR,OVC,0.01,WeatherDisplay:10.37,2013-04-15 21:12:00,
2013-04-15 17:17:00,87.4,66.5,29.96,East,95,1.1,0.0,50,0.00,CLR,OVC,0.01,WeatherDisplay:10.37,2013-04-15 21:17:00,
2013-04-15 17:22:00,87.5,66.6,29.96,South,171,1.0,1.0,50,0.00,CLR,OVC,0.01,WeatherDisplay:10.37,2013-04-15 21:22:00,
2013-04-15 17:27:00,87.8,66.8,29.96,NNW,331,1.1,1.1,50,0.00,CLR,OVC,0.01,WeatherDisplay:10.37,2013-04-15 21:27:00,
2013-04-15 17:32:00,88.2,67.2,29.96,North,358,2.3,2.3,50,0.00,CLR,OVC,0.01,WeatherDisplay:10.37,2013-04-15 21:32:00,
2013-04-15 17:37:00,88.1,66.5,29.96,NNE,21,1.1,1.1,49,0.00,CLR,OVC,0.01,WeatherDisplay:10.37,2013-04-15 21:37:00,
2013-04-15 17:42:00,87.9,66.9,29.96,East,83,3.0,3.0,50,0.00,CLR,OVC,0.01,WeatherDisplay:10.37,2013-04-15 21:42:00,
2013-04-15 17:47:00,87.9,67.5,29.96,North,350,3.4,3.4,51,0.00,CLR,OVC,0.01,WeatherDisplay:10.37,2013-04-15 21:47:00,
2013-04-15 17:52:00,87.7,67.9,29.96,North,353,2.3,2.3,52,0.00,CLR,OVC,0.01,WeatherDisplay:10.37,2013-04-15 21:52:00,
2013-04-15 17:57:00,87.6,68.4,29.96,ENE,78,1.1,0.0,53,0.00,CLR,OVC,0.01,WeatherDisplay:10.37,2013-04-15 21:57:00,
2013-04-15 18:02:00,87.4,67.6,29.96,NNE,19,3.4,3.4,52,0.00,CLR,OVC,0.01,WeatherDisplay:10.37,2013-04-15 22:02:00,
2013-04-15 18:07:00,87.5,68.3,29.96,NNE,25,3.4,3.4,53,0.00,CLR,OVC,0.01,WeatherDisplay:10.37,2013-04-15 22:07:00,
2013-04-15 18:12:00,87.4,67.6,29.96,NE,47,2.3,2.3,52,0.00,CLR,OVC,0.01,WeatherDisplay:10.37,2013-04-15 22:12:00,
2013-04-15 18:17:00,87.0,68.3,29.96,North,351,3.4,3.4,54,0.00,CLR,OVC,0.01,WeatherDisplay:10.37,2013-04-15 22:17:00,
2013-04-15 18:22:00,86.4,68.8,29.97,NE,47,3.4,3.4,56,0.00,CLR,OVC,0.01,WeatherDisplay:10.37,2013-04-15 22:22:00,
2013-04-15 18:27:00,85.5,68.5,29.97,NNE,28,3.4,3.4,57,0.00,CLR,OVC,0.01,WeatherDisplay:10.37,2013-04-15 22:27:00,
2013-04-15 18:32:00,84.6,68.2,29.97,NNE,12,3.4,3.4,58,0.00,CLR,OVC,0.01,WeatherDisplay:10.37,2013-04-15 22:32:00,
2013-04-15 18:37:00,84.0,68.1,29.97,NE,42,4.0,4.0,59,0.00,CLR,OVC,0.01,WeatherDisplay:10.37,2013-04-15 22:37:00,
2013-04-15 18:42:00,83.6,67.8,29.97,NE,50,2.3,2.3,59,0.00,CLR,OVC,0.01,WeatherDisplay:10.37,2013-04-15 22:42:00,
2013-04-15 18:47:00,83.2,67.9,29.97,NNE,15,3.4,3.4,60,0.00,CLR,OVC,0.01,WeatherDisplay:10.37,2013-04-15 22:47:00,
2013-04-15 18:52:00,82.9,67.6,29.98,NNE,22,2.3,2.3,60,0.00,CLR,OVC,0.01,WeatherDisplay:10.37,2013-04-15 22:52:00,
2013-04-15 18:57:00,82.5,67.2,29.98,NE,42,4.0,4.0,60,0.00,CLR,OVC,0.01,WeatherDisplay:10.37,2013-04-15 22:57:00,
2013-04-15 19:02:00,82.0,66.7,29.98,North,3,3.4,3.4,60,0.00,CLR,OVC,0.01,WeatherDisplay:10.37,2013-04-15 23:02:00,
2013-04-15 19:07:00,81.6,66.8,29.98,NE,39,2.3,2.3,61,0.00,CLR,OVC,0.01,WeatherDisplay:10.37,2013-04-15 23:07:00,
2013-04-15 19:12:00,81.2,66.5,29.99,NE,52,2.3,2.3,61,0.00,CLR,OVC,0.01,WeatherDisplay:10.37,2013-04-15 23:12:00,
2013-04-15 19:17:00,80.9,66.7,29.99,ENE,61,2.3,2.3,62,0.00,CLR,OVC,0.01,WeatherDisplay:10.37,2013-04-15 23:17:00,
2013-04-15 19:22:00,80.6,66.4,29.99,NNE,14,2.3,2.3,62,0.00,CLR,OVC,0.01,WeatherDisplay:10.37,2013-04-15 23:22:00,
2013-04-15 19:27:00,80.4,66.6,29.99,NE,47,1.1,1.1,63,0.00,CLR,OVC,0.01,WeatherDisplay:10.37,2013-04-15 23:27:00,
2013-04-15 19:32:00,80.1,66.4,29.99,NNE,14,0.0,0.0,63,0.00,CLR,OVC,0.01,WeatherDisplay:10.37,2013-04-15 23:32:00,
2013-04-15 19:37:00,79.9,66.6,30.00,NNE,18,0.0,0.0,64,0.00,CLR,OVC,0.01,WeatherDisplay:10.37,2013-04-15 23:37:00,
2013-04-15 19:42:00,79.6,66.3,30.00,NNE,18,0.0,0.0,64,0.00,CLR,OVC,0.01,WeatherDisplay:10.37,2013-04-15 23:42:00,
2013-04-15 19:47:00,79.3,66.5,30.00,NNE,19,0.0,0.0,65,0.00,CLR,OVC,0.01,WeatherDisplay:10.37,2013-04-15 23:47:00,
2013-04-15 19:52:00,79.0,65.8,30.00,NE,35,1.1,0.0,64,0.00,CLR,OVC,0.01,WeatherDisplay:10.37,2013-04-15 23:52:00,
2013-04-15 19:57:00,78.7,65.9,30.00,NNW,341,0.0,0.0,65,0.00,CLR,OVC,0.01,WeatherDisplay:10.37,2013-04-15 23:57:00,
2013-04-15 20:02:00,78.5,65.8,30.01,NNW,341,0.0,0.0,65,0.00,SCT,OVC,0.01,WeatherDisplay:10.37,2013-04-16 00:02:00,
2013-04-15 20:07:00,78.1,65.4,30.01,NNW,341,0.0,0.0,65,0.00,SCT,OVC,0.01,WeatherDisplay:10.37,2013-04-16 00:07:00,
2013-04-15 20:12:00,77.8,65.1,30.01,NNE,12,1.1,0.0,65,0.00,SCT,OVC,0.01,WeatherDisplay:10.37,2013-04-16 00:12:00,
2013-04-15 20:17:00,77.5,64.8,30.02,NNE,12,0.0,0.0,65,0.00,SCT,OVC,0.01,WeatherDisplay:10.37,2013-04-16 00:17:00,
2013-04-15 20:22:00,77.2,65.0,30.02,NNE,12,0.0,0.0,66,0.00,SCT,OVC,0.01,WeatherDisplay:10.37,2013-04-16 00:22:00,
2013-04-15 20:27:00,76.9,64.7,30.02,NNE,12,0.0,0.0,66,0.00,SCT,OVC,0.01,WeatherDisplay:10.37,2013-04-16 00:27:00,
2013-04-15 20:32:00,76.6,64.4,30.03,NNE,12,0.0,0.0,66,0.00,SCT,OVC,0.01,WeatherDisplay:10.37,2013-04-16 00:32:00,
2013-04-15 20:37:00,76.5,64.7,30.03,NNE,12,0.0,0.0,67,0.00,SCT,OVC,0.01,WeatherDisplay:10.37,2013-04-16 00:37:00,
2013-04-15 20:42:00,76.3,64.5,30.04,NNE,12,0.0,0.0,67,0.00,SCT,OVC,0.01,WeatherDisplay:10.37,2013-04-16 00:42:00,
2013-04-15 20:47:00,76.0,64.7,30.04,NNE,12,0.0,0.0,68,0.00,SCT,OVC,0.01,WeatherDisplay:10.37,2013-04-16 00:47:00,
2013-04-15 20:52:00,75.8,64.5,30.04,NNE,12,0.0,0.0,68,0.00,SCT,OVC,0.01,WeatherDisplay:10.37,2013-04-16 00:52:00,
2013-04-15 20:57:00,75.6,64.3,30.04,NNE,12,0.0,0.0,68,0.00,SCT,OVC,0.01,WeatherDisplay:10.37,2013-04-16 00:57:00,
2013-04-15 21:02:00,75.4,64.1,30.05,NNE,12,0.0,0.0,68,0.00,SCT,OVC,0.01,WeatherDisplay:10.37,2013-04-16 01:02:00,
2013-04-15 21:07:00,75.2,64.3,30.05,NNE,12,0.0,0.0,69,0.00,SCT,OVC,0.01,WeatherDisplay:10.37,2013-04-16 01:07:00,
2013-04-15 21:12:00,75.0,64.1,30.05,NNE,12,0.0,0.0,69,0.00,SCT,OVC,0.01,WeatherDisplay:10.37,2013-04-16 01:12:00,
2013-04-15 21:14:00,75.0,64.1,30.05,NNE,12,0.0,0.0,69,0.00,SCT,OVC,0.01,WeatherDisplay:10.37,2013-04-16 01:14:00,
2013-04-15 21:17:00,75.0,64.1,30.05,NNE,12,0.0,0.0,69,0.00,SCT,OVC,0.01,WeatherDisplay:10.37,2013-04-16 01:17:00,
2013-04-15 21:22:00,75.0,64.1,30.05,NNE,12,0.0,0.0,69,0.00,SCT,OVC,0.01,WeatherDisplay:10.37,2013-04-16 01:22:00,
2013-04-15 21:27:00,74.7,63.9,30.06,NNE,12,1.0,0.0,69,0.00,SCT,OVC,0.01,WeatherDisplay:10.37,2013-04-16 01:27:00,
2013-04-15 21:32:00,74.6,63.3,30.06,NNE,12,1.1,1.1,68,0.00,CLR,OVC,0.01,WeatherDisplay:10.37,2013-04-16 01:32:00,
2013-04-15 21:37:00,74.6,63.3,30.07,NNE,20,0.0,0.0,68,0.00,CLR,OVC,0.01,WeatherDisplay:10.37,2013-04-16 01:37:00,
2013-04-15 21:42:00,74.6,64.6,30.07,NNE,21,0.0,0.0,71,0.00,CLR,OVC,0.01,WeatherDisplay:10.37,2013-04-16 01:42:00,
2013-04-15 21:47:00,74.4,63.6,30.07,NNE,21,1.1,1.1,69,0.00,CLR,OVC,0.01,WeatherDisplay:10.37,2013-04-16 01:47:00,
2013-04-15 21:52:00,74.2,63.4,30.07,NNE,21,0.0,0.0,69,0.00,CLR,OVC,0.01,WeatherDisplay:10.37,2013-04-16 01:52:00,
2013-04-15 21:57:00,74.0,63.6,30.07,NNE,21,0.0,0.0,70,0.00,CLR,OVC,0.01,WeatherDisplay:10.37,2013-04-16 01:57:00,
2013-04-15 22:02:00,73.8,63.4,30.07,NNE,21,0.0,0.0,70,0.00,CLR,OVC,0.01,WeatherDisplay:10.37,2013-04-16 02:02:00,
2013-04-15 22:07:00,73.6,63.2,30.07,NNE,20,0.0,0.0,70,0.00,CLR,OVC,0.01,WeatherDisplay:10.37,2013-04-16 02:07:00,
2013-04-15 22:12:00,73.3,63.3,30.08,North,11,1.1,1.1,71,0.00,CLR,OVC,0.01,WeatherDisplay:10.37,2013-04-16 02:12:00,
2013-04-15 22:17:00,73.1,63.1,30.07,North,358,1.1,1.1,71,0.00,CLR,OVC,0.01,WeatherDisplay:10.37,2013-04-16 02:17:00,
2013-04-15 22:22:00,72.9,62.9,30.07,NNE,22,1.1,0.0,71,0.00,CLR,OVC,0.01,WeatherDisplay:10.37,2013-04-16 02:22:00,
2013-04-15 22:27:00,72.7,62.8,30.07,NNW,348,1.1,1.1,71,0.00,CLR,OVC,0.01,WeatherDisplay:10.37,2013-04-16 02:27:00,
2013-04-15 22:32:00,72.6,63.1,30.08,NNE,12,1.1,0.0,72,0.00,CLR,OVC,0.01,WeatherDisplay:10.37,2013-04-16 02:32:00,
2013-04-15 22:37:00,72.5,63.0,30.08,NNE,12,0.0,0.0,72,0.00,CLR,OVC,0.01,WeatherDisplay:10.37,2013-04-16 02:37:00,
2013-04-15 22:42:00,72.3,62.8,30.08,North,2,1.1,0.0,72,0.00,CLR,OVC,0.01,WeatherDisplay:10.37,2013-04-16 02:42:00,
2013-04-15 22:47:00,72.2,62.7,30.08,North,2,0.0,0.0,72,0.00,CLR,OVC,0.01,WeatherDisplay:10.37,2013-04-16 02:47:00,
2013-04-15 22:52:00,72.0,62.9,30.08,North,2,0.0,0.0,73,0.00,CLR,OVC,0.01,WeatherDisplay:10.37,2013-04-16 02:52:00,
2013-04-15 22:57:00,71.8,62.7,30.08,NNE,21,2.3,2.3,73,0.00,CLR,OVC,0.01,WeatherDisplay:10.37,2013-04-16 02:57:00,
2013-04-15 23:02:00,71.5,62.8,30.08,NNE,22,2.0,2.0,74,0.00,CLR,OVC,0.01,WeatherDisplay:10.37,2013-04-16 03:02:00,
2013-04-15 23:07:00,71.1,62.4,30.08,NNE,31,1.1,1.1,74,0.00,CLR,OVC,0.01,WeatherDisplay:10.37,2013-04-16 03:07:00,
2013-04-15 23:12:00,70.9,62.6,30.08,NNE,19,1.1,1.1,75,0.00,CLR,OVC,0.01,WeatherDisplay:10.37,2013-04-16 03:12:00,
2013-04-15 23:17:00,70.7,62.8,30.08,NNE,19,0.0,0.0,76,0.00,CLR,OVC,0.01,WeatherDisplay:10.37,2013-04-16 03:17:00,
2013-04-15 23:22:00,70.6,62.7,30.08,NNE,19,1.1,1.1,76,0.00,CLR,OVC,0.01,WeatherDisplay:10.37,2013-04-16 03:22:00,
2013-04-15 23:27:00,70.5,62.9,30.08,NNE,19,0.0,0.0,77,0.00,CLR,OVC,0.01,WeatherDisplay:10.37,2013-04-16 03:27:00,
2013-04-15 23:32:00,70.3,63.1,30.08,NNE,19,0.0,0.0,78,0.00,CLR,OVC,0.01,WeatherDisplay:10.37,2013-04-16 03:32:00,
2013-04-15 23:37:00,70.1,62.9,30.08,NNE,19,1.1,0.0,78,0.00,CLR,OVC,0.01,WeatherDisplay:10.37,2013-04-16 03:37:00,
2013-04-15 23:42:00,69.9,63.1,30.08,NNE,19,0.0,0.0,79,0.00,CLR,OVC,0.01,WeatherDisplay:10.37,2013-04-16 03:42:00,
2013-04-15 23:47:00,69.8,63.0,30.09,NNE,19,0.0,0.0,79,0.00,CLR,OVC,0.01,WeatherDisplay:10.37,2013-04-16 03:47:00,
2013-04-15 23:52:00,69.6,63.2,30.09,NNE,19,0.0,0.0,80,0.00,CLR,OVC,0.01,WeatherDisplay:10.37,2013-04-16 03:52:00,
2013-04-15 23:57:00,69.4,63.0,30.09,NNE,19,0.0,0.0,80,0.00,CLR,OVC,0.01,WeatherDisplay:10.37,2013-04-16 03:57:00,